Regional Weather Roundup
Issued by NWS

Home | Current Version | Previous Version | Text Only | Print | Product List | Glossary Off
Versions: 1 2 3 4 5 6 7 8 9 10 11 12 13 14 15 16 17 18 19 20 21 22 23 24 25 26 27 28 29 30 31 32 33 34 35 36 37 38 39 40 41 42 43 44 45 46 47 48 49 50

000
ASUS43 KLSX 041507
RWRMO

WEATHER SUMMARY FOR MISSOURI
NATIONAL WEATHER SERVICE SPRINGFIELD MO
900 AM CST SUN DEC 04 2016

NOTE: "FAIR" INDICATES FEW OR NO CLOUDS BELOW 12,000 FEET WITH NO
       SIGNIFICANT WEATHER AND/OR OBSTRUCTIONS TO VISIBILITY.
       CURRENT SKY AND/OR WEATHER CONDITIONS ARE NOT AVAILABLE FOR
       CHILLICOTHE AND FARMINGTON.

MOZ001>031-035>038-043-044-053-054-041600-
...NORTHERN AND WESTERN MISSOURI...

CITY           SKY/WX    TMP DP  RH WIND       PRES   REMARKS
KANSAS CTY INT LGT RAIN  37  34  89 W7        30.01R
KANSAS C DTWN  CLOUDY    39  36  89 W6        30.02R
LEE`S SUMMIT   MIX PCPN  37  36  96 W6        30.02R
ST JOSEPH      CLOUDY    36  35  96 S6        30.01F
CHILLICOTHE      N/A     33  33 100 CALM      30.02S
KIRKSVILLE     SNOW      33  33 100 SE7       30.00F VSB 1/2 WCI  27

$$
MOZ066>068-077>081-088>096-101>105-041600-
...SOUTHWEST MISSOURI...

CITY           SKY/WX    TMP DP  RH WIND       PRES   REMARKS
SPRINGFIELD    LGT RAIN  39  37  92 VRB6      30.01R
JOPLIN         CLOUDY    41  41 100 S5        30.02F
BRANSON        LGT RAIN  37  37 100 CALM      30.02S FOG

$$
MOZ032>034-039>042-045>050-055>058-069>072-041600-
...CENTRAL MISSOURI...

CITY           SKY/WX    TMP DP  RH WIND       PRES   REMARKS
COLUMBIA       LGT RAIN  36  35  96 S5        30.02R FOG
JEFFERSON CITY LGT RAIN  38  36  92 S6        30.03R FOG
ROLLA          LGT RAIN  36  36 100 S6        29.99R FOG
SEDALIA        LGT SNOW  34  32  92 S3        30.03R FOG
WHITEMAN AFB   LGT RAIN  35  35 100 SW3       30.00S
WARRENSBURG    LGT RAIN  36  36 100 S7        30.02R WCI  30
OSAGE BEACH    LGT RAIN  37  36  96 SW3       30.03R FOG

$$
MOZ051-052-059>065-041600-
...EAST CENTRAL MISSOURI...

CITY           SKY/WX    TMP DP  RH WIND       PRES   REMARKS
ST LOUIS INTL  LGT RAIN  38  34  85 SE3       30.03R FOG
SPIRIT OF STL  LGT RAIN  38  37  97 CALM      30.03R FOG
ST CHARLES     LGT RAIN  37  36  96 E7        30.02F FOG

$$
MOZ072>076-082>087-097>100-106>115-041600-
...SOUTH CENTRAL AND SOUTHEAST MISSOURI...

CITY           SKY/WX    TMP DP  RH WIND       PRES   REMARKS
CAPE GIRARDEAU LGT RAIN  40  37  89 SE6       30.01S FOG
FARMINGTON     LGT RAIN  37  36  96 S3        30.02R FOG
POPLAR BLUFF   LGT RAIN  40  39  97 CALM      30.02S FOG
WEST PLAINS    CLOUDY    38  37  97 S3        30.02R FOG

$$



USA.gov is the U.S. government's official web portal to all federal, state and local government web resources and services.